Regional Weather Roundup
Issued by NWS Boston, MA

Home | Current Version | Previous Version | Text Only | Print | Product List | Glossary On
Versions: 1 2 3 4 5 6 7 8 9 10 11 12 13 14 15 16 17 18 19 20 21 22 23 24 25 26 27 28 29 30 31 32 33 34 35 36 37 38 39 40 41 42 43 44 45 46 47 48 49 50
451
ASUS41 KBOX 130710
RWRBOX

REGIONAL WEATHER ROUNDUP
NATIONAL WEATHER SERVICE TAUNTON MA
200 AM EST SAT FEB 13 2016

NOTE:  "FAIR" INDICATES FEW OR NO CLOUDS BELOW 12,000 FEET WITH NO
SIGNIFICANT WEATHER AND/OR OBSTRUCTIONS TO VISIBILITY.  THE FOLLOWING
OBSERVATION LOCATIONS DO NOT REPORT PRESENT WEATHER...PROVINCETOWN...
SMITHFIELD...BLOCK ISLAND...KEENE...AND OXFORD.

MAZALL-130800-
EASTERN MASSACHUSETTS

CITY           SKY/WX    TMP DP  RH WIND       PRES   REMARKS
BOSTON         CLOUDY    21   9  59 NW6       29.85F WCI  13
BEVERLY        PTCLDY    18   5  57 W3        29.84F
LAWRENCE       PTCLDY    13   4  67 CALM      29.86F
BEDFORD        PTCLDY    13   6  74 CALM      29.83F
BLUE HILL        N/A     16   7  67 W5        29.79F WCI   9
NORWOOD        CLOUDY    18  11  74 CALM      29.85F
MARSHFIELD     CLOUDY    21  18  86 CALM      29.87F FOG
PLYMOUTH       LGT SNOW  19  15  84 CALM      29.85F FOG
TAUNTON        LGT SNOW  20  14  77 CALM      29.85F
NEW BEDFORD    LGT SNOW  20  17  88 CALM      29.85F FOG
$$

MAZALL-130800-
CAPE COD AND THE ISLANDS

CITY           SKY/WX    TMP DP  RH WIND       PRES   REMARKS
FALMOUTH       LGT SNOW  19  16  86 VRB3      29.84F
HYANNIS        LGT SNOW  20  16  84 NW6       29.83F FOG     WCI  12
CHATHAM        LGT SNOW  20  19  96 NW5       29.85F FOG     WCI  13
PROVINCETOWN   LGT SNOW  21  18  88 W5        29.86F FOG     WCI  15
NANTUCKET      LGT SNOW  24  20  84 N10       29.82F FOG     WCI  14
MARTHAS VNYRD  LGT SNOW  21  18  88 N5        29.84F FOG     WCI  15
$$

MAZALL-130800-
CENTRAL AND WESTERN MASSACHUSETTS

CITY           SKY/WX    TMP DP  RH WIND       PRES   REMARKS
WORCESTER      CLEAR     10   5  80 W9        29.76F WCI  -3
FITCHBURG      CLEAR      5   0  79 NW3       29.83F
ORANGE         PTCLDY     2  -2  83 CALM      29.82F
SPRINGFIELD    PTCLDY     2  -2  82 NE2       29.82F
WESTFIELD      MOCLDY     6   2  83 CALM      29.83F
NORTH ADAMS    CLOUDY     9   2  73 CALM      29.81F
PITTSFIELD     CLOUDY     8   3  80 CALM      29.74F
$$

RIZALL-130800-
RHODE ISLAND

CITY           SKY/WX    TMP DP  RH WIND       PRES   REMARKS
PROVIDENCE     CLOUDY    20  12  71 CALM      29.85F
NEWPORT        LGT SNOW  20  15  81 CALM      29.83F
BLOCK ISLAND   CLOUDY    21  18  86 NW7       29.82F WCI  13
SMITHFIELD     PTCLDY    14   9  79 CALM      29.80F
WESTERLY       MOCLDY    20  13  74 CALM      29.85F
$$

CTZALL-130800-
CONNECTICUT

CITY           SKY/WX    TMP DP  RH WIND       PRES   REMARKS
BRADLEY INTL   CLOUDY    13   6  74 VRB3      29.84F
HARTFORD       CLEAR     20   8  60 W3        29.86F
BRIDGEPORT     CLOUDY    22   9  57 W9        29.88F WCI  12
DANBURY        CLOUDY    19   7  59 W9        29.85F WCI   8
GROTON         CLOUDY    20  16  84 NW7       29.85F WCI  11
NEW HAVEN      PTCLDY    21   9  59 W8        29.86F WCI  11
CHESTER        FAIR      19  10  68 W6        29.83F WCI  11
MERIDEN        CLEAR     14   8  77 CALM      29.86F
WILLIMANTIC    PTCLDY    14   8  77 CALM      29.85F
OXFORD         MOCLDY    14   0  52 W5        29.81F WCI   6
$$

MEZ002-015-021-024-NHZ003-005-008-011-012-014-VTZ005-008-130800-
NORTHERN NEW ENGLAND

CITY           SKY/WX    TMP DP  RH WIND       PRES   REMARKS
PORTLAND ME    CLEAR      7   2  80 CALM      29.85F
BANGOR ME      MOCLDY    -3  -7  82 N3        29.89F
CONCORD NH     MOCLDY     3  -1  83 CALM      29.83F
MANCHESTER NH  PTCLDY     8   2  76 N3        29.83F
NASHUA NH      PTCLDY     7   1  78 CALM      29.85F
PORTSMOUTH NH  MOCLDY    11   2  66 NW2       29.84F
JAFFREY NH     CLOUDY     2  -3  80 CALM      29.76F
KEENE NH       CLOUDY     7   0  72 CALM      29.81F
BURLINGTON VT  CLOUDY    19   4  51 S13       29.78S WCI   6
MT. WASHINGTON SNOWSHWR  -8  -8 100 W29         N/A  VSB 1/8 WCI -36
$$

NYZ052-076-130800-
EASTERN NEW YORK

CITY           SKY/WX    TMP DP  RH WIND       PRES   REMARKS
ALBANY         CLOUDY    19   6  57 VRB3      29.83F
NEW YORK CITY  CLOUDY    23  11  60 W13       29.90F WCI  11
$$

ANZALL-130800-
MARINE OBSERVATIONS

STATION/POSITION TIME  TEMP    WIND        PRES    VSBY  WAVE
                       AIR SEA DIR/SP/G                  HT/PER
                 (UTC) (F)     (DEG/KT/KT) (MB)    (MI)  (FT/S)
BOSTON BUOY      0650   22 40  280/  6/  8 1010.6F         1/11
BUZZARDS BAY     0600          340/ 11/ 12 1012.0F
NANTUCKET SOUND  0650   24 38  330/ 14/ 16 1010.3F         1/ 3
MASS BAY-STELLWA 0604   23 40  270/  6/ 10   N/A    1 7/8  1/ 3
ISLE OF SHOALS   0600   22     240/ 10/ 13 1011.0F
S OF BLOCK IS    NOT AVBL
$$

......................KEY.........................
  SKY/WX - SKY CONDITION/PRESENT WEATHER
  TMP    - TEMPERATURE IN FAHRENHEIT
  DWPT   - DEWPOINT IN FAHRENHEIT
  RH     - RELATIVE HUMIDITY IN PERCENT
  WIND   - DIRECTION AND SPEED IN MPH
  PRES   - MEAN SEA LEVEL PRESSURE IN INCHES OF HG
  WCI    - WIND CHILL INDEX
  VSB    - VISIBILITY IN MILES
  HX     - HEAT INDEX
  TC     - TEMPERATURE IN CELSIUS
  VRB    - VARIABLE WIND DIRECTION
  N/A    - NOT AVAILABLE




USA.gov is the U.S. government's official web portal to all federal, state and local government web resources and services.